This is the latest recevied weather packets stored in our database for station/object KF5WCW-1. If no packets are shown the sender has not sent any weather packets the latest 10 day(s).
| Time | Temp. | Humidity | Pressure | Rain* | Wind** | Luminosity | Snow |
|---|---|---|---|---|---|---|---|
| 1777392985 | 7.22° C | 46% | 0 hPa | 0 mm | - | - | - |
| 1777392685 | 6.67° C | 45% | 0 hPa | 0 mm | - | - | - |
| 1777392385 | 6.67° C | 45% | 0 hPa | 0 mm | - | - | - |
| 1777392085 | 7.22° C | 44% | 0 hPa | 0 mm | - | - | - |
| 1777391785 | 6.67° C | 44% | 0 hPa | 0 mm | - | - | - |
| 1777391485 | 7.22° C | 42% | 0 hPa | 0 mm | - | - | - |
| 1777391185 | 6.67° C | 46% | 0 hPa | 0 mm | - | - | - |
| 1777390885 | 6.67° C | 48% | 0 hPa | 0 mm | - | - | - |
| 1777390585 | 6.11° C | 50% | 0 hPa | 0 mm | - | - | - |
| 1777390285 | 6.67° C | 51% | 0 hPa | 0 mm | - | - | - |
| 1777389985 | 6.11° C | 54% | 0 hPa | 0 mm | - | - | - |
| 1777389685 | 6.11° C | 52% | 0 hPa | 0 mm | - | - | - |
| 1777389385 | 6.11° C | 56% | 0 hPa | 0 mm | - | - | - |
| 1777389085 | 6.11° C | 57% | 0 hPa | 0 mm | - | - | - |
| 1777388785 | 6.11° C | 58% | 0 hPa | 0 mm | - | - | - |
| 1777388485 | 6.11° C | 58% | 0 hPa | 0 mm | - | - | - |
| 1777388185 | 6.11° C | 62% | 0 hPa | 0 mm | - | - | - |
| 1777387885 | 5.56° C | 62% | 0 hPa | 0 mm | - | - | - |
| 1777387585 | 5° C | 68% | 0 hPa | 0 mm | - | - | - |
| 1777387285 | 4.44° C | 69% | 0 hPa | 0 mm | - | - | - |
| 1777386985 | 4.44° C | 67% | 0 hPa | 0 mm | - | - | - |
| 1777386685 | 4.44° C | 70% | 0 hPa | 0 mm | - | - | - |
| 1777386385 | 3.89° C | 74% | 0 hPa | 0 mm | - | - | - |
| 1777386085 | 3.89° C | 77% | 0 hPa | 0 mm | - | - | - |
| 1777385785 | 3.33° C | 76% | 0 hPa | 0 mm | - | - | - |
* Rain latest hour (hover to see other rain measurements)
** Current wind speed in m/s (hover to see current wind gust speed)